Flag for Germany Weather past 2 weeks in Weimar, Thuringia, Germany

Now
50 °F

Partly cloudy.


Feels Like: 44 °F
Forecast: 42 / 52 °F
Wind: 16 mph from Southwest

Location: Erfurt-Bindersleben

Current Time: Dec 18, 2014 at 4:54:49 PM

Latest Report: Dec 18, 2014 at 4:20 PM


Visibility: N/A

Pressure: 29.83 "Hg

Humidity: 88%

Dew point: 46 °F

Location of WeimarLocation

Historic Weather in Weimar — Graph

°F

Weimar temperature yesterday

Maximum temperature yesterday: 41 °F (at 11:20 PM)
Minimum temperature yesterday: 32 °F (at 3:20 AM)
Average temperature yesterday: 36 °F

Past Weeks' High & Low Weather Summary

 TemperatureHumidityPressure
High50 °F (Dec 18, 1:20 PM)100% (Dec 3, 3:20 PM)30.36 "Hg (Dec 3, 3:20 PM)
Low25 °F (Dec 9, 1:20 AM)75% (Dec 7, 12:50 PM)29.47 "Hg (Dec 12, 5:50 PM)
Average36 °F93%29.96 "Hg
* Reported Dec 3 3:20 PM — Dec 18 3:50 PM, Weimar, Weather by CustomWeather, © 2014

Note: Actual official high and low records may vary slightly from our data, if they occured in-between our weather recording intervals... More about our weather records

Advertising

Weimar weather history for previous 24 hours

 ConditionsComfort  
Time TempWeatherWind HumidityBarometerVisibility
3:50 PM
Dec 18
50 °FBroken clouds.15 mph88%29.83 "HgN/A
3:20 PM50 °FBroken clouds.16 mph88%29.83 "HgN/A
2:50 PM50 °FBroken clouds.14 mph88%29.83 "HgN/A
2:20 PM50 °FPartly sunny.15 mph88%29.83 "HgN/A
1:50 PM50 °FPartly sunny.16 mph88%29.83 "HgN/A
1:20 PM50 °FPartly sunny.15 mph88%29.83 "HgN/A
12:50 PM48 °FPartly sunny.16 mph87%29.83 "HgN/A
12:20 PM48 °FPartly sunny.15 mph87%29.83 "HgN/A
11:20 AM48 °FPartly sunny.15 mph87%29.86 "HgN/A
10:50 AM48 °FBroken clouds.14 mph87%29.86 "HgN/A
10:20 AM48 °FPartly sunny.15 mph87%29.86 "HgN/A
9:50 AM46 °FPartly sunny.18 mph93%29.86 "HgN/A
9:20 AM46 °FPartly sunny.14 mph87%29.86 "HgN/A
8:50 AM46 °FBroken clouds.10 mph87%29.86 "HgN/A
8:20 AM46 °FPartly sunny.12 mph87%29.86 "HgN/A
7:50 AM46 °FPartly cloudy.15 mph87%29.86 "HgN/A
7:20 AM46 °FPassing clouds.13 mph93%29.86 "HgN/A
6:50 AM46 °FPassing clouds.16 mph87%29.86 "HgN/A
6:20 AM45 °FPassing clouds.14 mph93%29.86 "HgN/A
5:50 AM45 °FPassing clouds.13 mph93%29.83 "HgN/A
5:20 AM45 °FMostly cloudy.12 mph93%29.83 "HgN/A
4:20 AM45 °FMostly cloudy.12 mph93%29.83 "HgN/A
3:50 AM43 °FOvercast.12 mph93%29.83 "HgN/A
3:20 AM43 °FPassing clouds.13 mph93%29.83 "HgN/A
2:50 AM43 °FPassing clouds.13 mph93%29.83 "HgN/A
2:20 AM43 °FPartly cloudy.12 mph93%29.83 "HgN/A
1:50 AM43 °FPassing clouds.10 mph93%29.83 "HgN/A
1:20 AM41 °FLight rain. Passing clouds.14 mph100%29.80 "HgN/A
12:50 AM41 °FLight rain. Passing clouds.14 mph93%29.80 "HgN/A
12:20 AM41 °FPassing clouds.14 mph93%29.80 "HgN/A
11:20 PM
Dec 17
41 °FLight rain. Passing clouds.15 mph93%29.77 "HgN/A
10:50 PM39 °FLight rain. Passing clouds.15 mph93%29.77 "HgN/A
10:20 PM39 °FLight rain. Passing clouds.17 mph93%29.74 "HgN/A
9:50 PM39 °FPassing clouds.14 mph93%29.74 "HgN/A
9:20 PM39 °FPassing clouds.17 mph93%29.71 "HgN/A
8:50 PM39 °FLight rain. Partly cloudy.16 mph93%29.71 "HgN/A
8:20 PM39 °FPartly cloudy.17 mph93%29.71 "HgN/A
7:50 PM39 °FPartly cloudy.17 mph87%29.68 "HgN/A
7:20 PM39 °FPassing clouds.17 mph87%29.68 "HgN/A
6:50 PM37 °FPassing clouds.16 mph93%29.65 "HgN/A
6:20 PM37 °FPassing clouds.15 mph93%29.65 "HgN/A
5:50 PM37 °FPassing clouds.18 mph93%29.65 "HgN/A
5:20 PM37 °FLight rain. Mostly cloudy.17 mph87%29.62 "HgN/A
4:50 PM37 °FLight rain. Mostly cloudy.14 mph87%29.62 "HgN/A
4:20 PM37 °FLight rain. Mostly cloudy.18 mph87%29.62 "HgN/A
Weather by CustomWeather, © 2014

See weather overviewHow to use our weather pages